FLYING LAPTOP (42831 NORAD) Tracking and Keplerian Element Data

This shows tracking and keplerian element data for the satellite.

Feedback or suggestion? Click here.




ElementValue
Catalog42831
NameFLYING LAPTOP
Epoch Orbit28325
Epoch Day270.14375685
Epoch Year2022
RAAN118.6431
Inclination97.412
Eccentricity0.001476
Argument of Perigee33.2956
Mean Anonmoly326.9192
Mean Motion14.91948656
Decay Rate1.409E-05
L11 42831U 17042G 22270.14375685 .00001409 00000+0 14409-3 0 9998
L22 42831 97.4120 118.6431 0014760 33.2956 326.9192 14.91948656283258

Live tracking and technical data element details for FLYING LAPTOP (NORAD 42831). FLYING LAPTOP can be tracked NOW for your location showing map with azimuth and elevation plus other details from your city location.

Track the satellite on the map from your city or location and see movement details for azimuth, elevation, latitude, longitude, range, height, and movement on the map or in text.







IsCatalogInMostPopularTable: catalog: 42831, numindb: 648
Update: records affected: 1



GetName: 42831 FLYING LAPTOP

Hit Count: updated at: Fri, 30 Sep 2022 03:31:28 GMT